Starlink 1202

operational
NORAD ID: 45183 Int'l Des: 2020-012 Owner: SPXS Country: US Constellation: starlink
LEOCIRCULARSTARLINK_TYPE

About Starlink 1202

Description loading...

Live Position

Loading 3D Globe...

Upcoming Passes

Altitude History

Altitude vs Time

uPlot chart will show altitude changes over time

Two-Line Element Set

1 45183U 20012F 25351.56931688 .00004713 00000-0 33490-3 0 9995
2 45183 53.0557 55.2724 0001081 79.7741 280.3370 15.06420059322460
Epoch: Dec 17, 2025 • Age: 11 hours

Current Status

Altitude 552.3 km
Velocity 7.59 km/s
Sub-Earth Point 50.24°N, 13.21°E
Launch Date Feb 17, 2020
Age 5.8 years
Type internet

Technical Details

Classification Payload
Mass 260.00 kg
Dry Mass 248.00 kg
Total Mass 260.00 kg
Length 0.20 m
Diameter 2.80 m
Span 9.00 m
Shape Box + pan
Manufacturer SPXS
Bus Type Starlink
Phase Status In Orbit
Owner/State SPXS/US

Large Constellations

Loading constellations...